USA 99 (MILSTAR-1 1)

Last updated on Wed Oct 29 2025 00:02:45 GMT+0000 (Coordinated Universal Time)

1 22988U 94009A 25301.55203500 -.00000186 00000+0 00000+0 0 9996 2 22988 17.2725 30.1916 0002692 219.9511 255.7295 1.00270723 30631
UTC large
Height (km)
Speed (km/s)
/
Latitude / Longitude
Inclination (degrees)
Orbital Period (minutes)
Azimuth
Elevation
Range (km)
Doppler Factor

Next 0 passes for location: London (51.5072 / 0.1276)

Sorry there are no passes over London.